RH
36 31 16 11 8 12 22 27 26 20 22 23 21 33 35 23 29 40 52 55 65 62 60 58 57 60 57 52 44 48 47 44 38 36 49 79 84 72 64 66 71 71 63 74 51 51 59
84 49 36 19 13 10 10 19 27 28 21 23 23 26 37 33 21 31 42 51 64 56 57 63 60 58 56 47 52 51 47 43 37 36 39 51 72 78 80 73 95 95 89 82 83 78 65
62 100 66 41 24 15 11 12 18 28 23 24 25 24 35 41 25 22 33 44 54 66 60 61 63 67 59 53 56 53 53 48 44 43 42 64 85 92 87 77 84 91 89 89 77 79 77
30 30 99 87 53 35 16 12 14 20 25 21 26 27 26 43 39 20 23 34 44 67 71 66 69 65 50 56 54 49 52 46 46 56 74 86 98 97 100 93 76 83 82 88 83 75 78
2 11 49 100 100 69 49 17 12 16 21 21 25 30 29 38 46 31 17 22 42 69 87 81 55 70 53 49 52 53 57 57 52 45 77 74 88 99 89 93 93 88 95 91 81 71 77
2 2 9 47 95 100 90 61 16 13 17 20 22 29 33 37 51 44 22 16 27 67 88 88 79 66 64 67 64 56 56 63 69 67 61 50 57 74 86 94 96 95 89 92 89 61 75
2 2 2 3 90 83 100 97 54 14 13 18 19 28 35 34 56 54 29 16 21 37 54 83 93 74 76 86 90 65 61 62 76 78 73 53 63 86 66 66 84 86 91 91 84 81 82
2 2 2 2 22 85 91 99 89 24 14 13 18 27 37 40 54 60 40 21 15 40 63 79 77 72 82 98 98 91 81 67 66 79 66 84 92 53 49 56 75 87 86 80 80 89 80
2 2 2 4 3 57 94 99 98 82 24 20 23 34 39 46 56 66 55 36 24 47 75 79 43 57 64 98 100 98 98 90 70 68 61 50 77 49 60 74 85 77 83 77 86 70 79
2 3 20 35 6 32 74 100 99 94 79 95 95 85 39 49 66 75 68 50 33 43 90 95 75 74 69 97 99 99 100 99 98 94 81 81 66 64 82 80 87 93 57 81 79 99 97
18 64 65 83 80 18 100 98 100 96 87 99 100 100 59 64 82 90 84 64 47 55 97 84 85 73 65 83 95 82 100 99 99 97 96 82 90 61 78 49 92 77 75 87 93 92 100
72 82 75 72 85 78 58 99 99 98 83 96 98 100 93 89 96 100 98 58 63 90 94 85 81 78 77 77 96 100 98 99 98 98 98 92 95 86 75 65 68 71 84 82 99 97 97
48 90 82 82 86 82 55 62 89 98 95 94 99 99 100 100 98 99 100 81 68 96 63 88 89 88 88 97 98 99 99 98 98 98 98 99 85 87 85 88 82 86 94 86 90 96 88
23 91 90 84 98 93 90 42 95 95 97 90 91 96 99 100 100 99 100 95 78 61 63 73 84 94 99 99 96 96 100 97 99 98 96 96 87 78 76 82 78 73 78 91 87 84 73
49 89 92 91 98 92 95 53 100 98 98 97 98 92 99 98 99 100 100 98 72 65 64 76 88 98 98 95 99 100 100 98 77 90 88 86 91 75 73 61 72 70 99 53 98 78 100
33 88 91 91 95 97 92 92 86 98 94 95 98 95 97 84 99 99 99 99 90 77 66 69 98 97 94 85 100 96 93 79 85 70 68 76 94 76 86 96 88 79 75 91 99 99 94
23 83 78 96 97 98 94 97 98 98 98 82 99 88 98 87 99 99 99 97 89 83 77 95 97 98 95 94 88 86 73 65 68 78 78 90 99 89 94 98 85 97 99 92 98 90 90
24 33 71 95 99 98 96 97 98 97 98 100 99 97 95 99 98 98 98 95 82 80 97 97 98 99 100 83 85 81 72 66 88 81 94 89 97 98 91 88 97 76 98 94 92 100 94
29 22 70 95 97 97 92 98 98 84 96 99 98 95 98 94 98 98 96 89 89 85 99 98 98 93 75 87 87 72 66 76 78 88 96 97 98 93 100 100 100 100 91 63 78 99 82
30 19 54 93 97 97 94 98 84 99 97 98 84 99 98 99 99 100 100 99 98 96 98 98 98 99 74 71 66 71 68 72 88 93 97 97 98 96 97 99 97 100 82 80 96 100 55
51 12 41 87 98 97 90 94 94 98 97 100 86 98 94 97 97 86 95 93 98 99 98 99 99 89 78 70 64 67 64 75 94 96 98 98 98 99 99 96 100 89 56 81 99 80 47
54 11 23 83 98 96 96 97 100 97 99 97 77 96 91 86 100 99 100 99 98 98 99 98 98 62 68 70 66 64 68 71 91 94 87 97 98 100 100 92 98 87 77 100 96 63 53
51 9 32 74 91 90 85 96 97 98 98 96 83 96 99 80 92 98 94 82 79 99 92 97 99 85 77 60 70 71 71 72 80 92 84 97 92 99 82 100 100 98 90 92 71 59 54
44 8 20 43 73 93 92 97 99 98 98 99 80 99 98 97 98 99 98 100 94 93 98 98 99 86 83 83 85 82 91 88 80 96 100 78 79 94 69 64 71 57 52 55 54 52 57
43 9 54 83 71 89 86 98 98 98 98 98 94 92 97 98 97 98 97 85 80 92 99 98 99 80 93 99 99 93 98 94 85 86 93 92 94 86 85 76 64 59 59 54 58 46 52
49 12 29 72 95 91 88 97 96 95 98 100 98 100 99 100 97 99 100 85 87 94 98 99 99 91 99 100 100 99 98 98 94 94 84 90 100 95 86 77 75 48 53 42 53 55 54
65 25 16 49 82 94 88 98 96 98 100 100 100 97 99 99 95 99 94 88 88 96 98 99 99 99 98 100 95 99 92 90 92 98 99 99 100 93 86 96 65 56 60 44 57 50 46
72 56 19 39 81 40 78 97 98 98 100 100 97 100 100 98 98 100 98 77 87 97 99 99 99 99 98 99 95 99 97 89 92 85 84 98 98 99 99 96 83 55 58 51 44 36 41
77 18 18 31 62 25 74 93 95 98 99 100 94 99 100 97 97 99 100 100 72 95 98 98 99 99 99 99 95 96 92 97 93 96 97 98 90 81 84 78 63 59 58 56 44 42 43
Wind_Speed
31 29 28 28 27 26 27 27 25 24 22 21 20 19 18 18 17 17 15 16 16 16 18 20 23 24 27 23 25 28 27 26 21 14 18 24 21 21 26 27 26 35 34 30 32 31 31
32 32 30 30 27 28 27 27 26 26 24 22 22 20 19 19 19 18 17 15 16 14 16 18 21 24 26 22 18 23 25 25 27 29 23 20 23 20 23 24 25 27 33 36 33 32 32
30 28 33 31 31 28 29 28 27 27 27 23 22 23 21 19 20 20 20 17 17 17 14 15 19 24 24 14 18 22 23 19 22 26 23 16 19 23 22 23 29 32 36 34 42 38 38
37 31 26 35 33 32 30 29 29 28 28 26 24 23 22 21 21 22 22 20 18 19 18 15 17 23 21 14 18 20 23 17 19 21 15 15 19 30 28 21 26 31 34 39 36 38 38
42 38 31 29 34 34 31 31 31 29 29 28 26 25 22 22 21 22 24 21 20 21 21 23 24 23 22 13 11 14 21 16 17 20 29 26 23 22 30 29 26 28 30 32 37 34 34
37 41 42 38 37 31 36 33 32 31 30 29 27 26 24 22 21 21 23 21 21 22 23 23 26 23 14 12 14 13 17 18 19 21 25 25 31 36 33 32 29 25 30 30 32 38 36
38 39 40 42 34 32 35 35 33 31 30 30 29 26 24 23 21 22 21 21 20 23 25 21 22 25 27 23 19 14 13 16 22 24 24 24 31 34 38 36 33 33 25 28 29 30 25
41 38 39 37 40 39 38 34 35 31 31 31 29 27 24 23 22 21 19 18 17 21 28 28 24 28 24 28 27 22 20 21 24 29 26 26 36 31 29 31 36 33 35 39 34 19 28
43 44 41 35 40 44 38 37 34 28 30 30 29 27 25 22 21 19 16 16 16 18 26 36 26 29 25 27 34 30 26 23 25 27 27 34 8 16 33 31 29 37 37 39 37 26 26
42 41 38 34 37 42 43 36 36 30 25 25 22 23 25 22 20 18 14 15 12 15 15 19 15 11 14 28 34 29 32 27 30 31 27 29 31 30 17 35 30 33 35 33 33 24 25
37 32 33 30 27 39 30 38 37 29 26 25 23 25 22 22 19 14 13 12 8 8 5 5 9 8 9 13 18 16 24 30 33 34 32 29 21 27 36 40 26 40 29 25 26 33 31
29 29 31 30 27 28 48 27 32 31 30 26 24 22 19 21 17 12 8 8 5 3 8 7 10 10 10 13 19 28 20 36 38 32 30 35 19 18 26 27 32 32 30 27 20 26 20
27 28 32 28 25 28 36 44 38 34 31 28 25 23 18 17 11 13 8 6 6 7 4 7 12 10 11 13 15 19 24 31 35 25 29 29 33 32 25 23 27 29 26 7 7 11 13
30 29 30 25 23 18 21 44 36 37 34 30 26 22 21 20 19 13 15 10 9 6 13 15 17 17 16 18 18 20 22 25 37 21 5 17 12 32 33 37 27 31 34 13 8 7 9
25 28 29 25 21 21 17 30 34 40 37 30 27 25 27 22 18 22 17 16 8 9 15 15 19 18 17 15 16 11 21 22 25 31 19 11 15 14 21 27 38 33 32 48 10 17 3
25 26 26 24 28 23 19 21 33 36 40 30 29 27 28 21 22 21 22 26 19 15 18 20 20 10 8 8 11 10 11 12 22 20 29 22 17 22 29 30 31 39 33 27 18 5 7
28 26 26 26 31 21 23 17 29 36 33 35 31 29 25 16 23 29 31 29 28 25 23 17 19 18 8 10 10 15 9 15 11 9 24 29 23 19 24 18 34 40 28 31 14 21 2
31 24 22 30 31 20 17 9 26 42 34 32 35 30 28 29 31 34 31 30 28 25 22 20 16 18 18 9 12 17 17 15 8 18 23 33 14 14 26 21 28 39 27 31 18 9 28
33 24 25 29 30 24 17 4 38 43 42 37 34 28 23 20 37 33 28 26 23 22 26 16 13 11 10 12 12 20 22 7 20 15 16 25 15 12 5 13 21 33 35 43 40 25 14
36 24 22 27 29 28 25 9 44 33 32 37 32 25 25 28 28 22 22 23 23 24 25 21 23 19 15 14 20 8 19 10 13 11 12 10 16 15 8 3 19 25 44 33 35 11 4
35 25 20 26 28 22 12 8 36 35 29 31 34 22 29 33 29 23 20 19 16 16 15 8 10 19 18 13 15 24 18 11 15 14 17 10 13 16 21 17 24 29 30 40 42 13 16
32 24 19 21 26 24 20 13 33 33 29 31 31 21 26 23 16 12 15 26 20 20 23 23 16 16 20 21 17 8 18 19 14 16 17 16 11 17 9 14 24 29 33 27 23 16 17
33 23 15 15 20 24 12 14 20 29 34 31 32 33 14 17 19 18 19 12 14 14 18 15 15 17 23 21 14 16 14 12 7 16 12 11 6 13 8 14 17 8 32 29 27 18 17
34 21 13 16 18 21 17 7 27 33 35 32 27 27 20 22 17 13 8 12 16 22 22 25 13 27 17 18 15 15 11 17 19 17 12 10 10 7 6 6 1 2 6 15 16 16 18
34 20 13 11 16 19 16 14 29 25 26 26 22 26 20 25 23 22 16 17 19 20 22 22 13 26 21 14 15 12 11 12 17 17 9 10 7 3 1 3 5 2 3 8 17 14 16
30 21 14 12 15 19 15 6 28 29 28 23 25 16 23 20 20 20 16 14 17 22 18 15 23 29 26 15 20 9 6 8 10 8 17 11 11 10 3 2 3 4 6 2 9 13 13
28 22 15 13 14 17 17 8 30 25 23 20 17 22 22 23 21 16 11 13 15 16 17 10 28 27 26 20 19 7 6 7 9 11 18 19 18 19 14 3 6 7 2 3 7 3 6
26 23 16 13 14 12 16 11 25 28 24 21 21 17 19 22 20 17 13 13 13 16 14 8 21 31 27 22 21 9 8 12 10 12 15 17 16 14 13 8 9 3 5 3 3 6 7
25 21 16 13 14 13 17 20 25 27 19 20 19 16 18 19 15 15 18 16 12 16 15 12 16 19 23 30 18 13 7 11 13 11 16 19 21 13 17 11 6 7 4 3 5 3 4
Wind_Direction
285 284 281 278 275 272 272 273 270 270 276 280 279 281 280 273 265 267 275 293 293 292 285 276 269 261 257 258 259 269 271 270 264 267 258 242 238 236 236 233 233 232 233 234 241 236 220
285 281 280 280 277 274 270 270 269 268 266 272 277 276 277 276 269 262 268 281 291 299 295 284 272 264 260 262 263 262 261 262 267 261 258 238 234 235 241 227 218 230 232 233 231 234 230
284 290 281 277 277 274 273 269 266 265 263 264 269 274 274 273 272 263 261 267 278 284 300 301 285 275 276 272 257 264 264 266 253 258 248 222 213 230 240 236 223 224 230 230 228 229 234
278 275 280 283 277 273 271 268 265 261 260 260 261 265 271 272 271 266 260 261 271 279 282 292 297 289 288 290 263 256 269 268 254 231 228 208 200 214 214 223 228 228 232 238 231 229 229
283 281 265 278 279 273 271 268 264 260 257 255 258 261 263 266 268 269 266 262 268 275 282 292 296 292 298 283 282 259 251 249 234 225 224 228 231 225 224 224 235 232 241 244 247 232 229
284 277 274 258 266 278 272 268 263 259 257 252 250 256 261 262 264 266 265 267 266 271 279 284 289 288 286 289 291 268 248 236 227 223 227 229 226 228 226 219 230 234 235 243 242 239 231
297 290 275 271 265 264 275 266 261 257 253 251 250 248 254 260 261 266 267 267 266 272 272 280 267 280 283 278 272 262 242 232 223 221 222 228 229 222 228 225 230 232 237 244 249 245 249
304 292 284 269 255 251 259 261 258 252 250 249 247 248 249 254 260 265 270 275 269 272 279 276 274 277 266 272 265 261 255 231 223 228 226 228 237 237 238 237 233 238 240 239 243 240 236
309 301 290 273 252 246 251 260 249 243 243 243 242 240 241 246 253 263 271 269 265 275 282 288 288 274 268 255 258 257 253 245 238 232 230 237 236 238 235 234 234 235 240 244 246 246 244
309 299 296 291 253 241 243 240 247 230 233 233 227 227 235 241 244 251 263 264 266 278 293 285 296 282 255 238 255 253 248 248 227 232 232 246 244 237 225 234 228 240 235 249 252 267 262
312 309 301 295 279 241 238 245 237 215 218 225 222 228 228 231 235 247 254 260 255 281 300 266 254 263 271 231 252 271 235 229 233 227 214 227 242 231 226 231 228 242 239 247 257 257 270
309 313 302 287 277 278 234 249 228 206 207 217 222 232 217 226 228 230 259 260 236 177 249 248 260 270 267 265 244 244 229 230 236 229 217 230 235 233 245 245 235 240 241 243 257 260 252
298 306 303 292 284 280 255 241 247 209 200 206 215 221 229 219 225 230 235 232 199 207 255 255 267 272 284 272 271 257 246 238 226 225 225 219 231 234 239 232 230 233 238 236 230 233 234
307 306 306 291 307 287 282 238 243 216 196 199 209 212 217 216 217 228 228 202 206 242 238 264 283 283 267 279 265 258 254 244 225 208 142 218 247 236 231 231 221 217 214 217 205 217 226
316 305 305 298 323 284 274 229 235 209 192 196 202 205 222 217 213 234 230 217 243 249 253 266 278 272 268 271 251 272 237 249 220 229 215 211 236 243 238 248 227 221 209 215 283 257 219
313 304 306 299 315 323 251 226 243 182 191 190 196 196 220 213 213 233 234 234 242 250 268 283 276 254 248 263 231 223 233 245 234 233 229 236 263 249 259 235 237 223 221 202 213 241 207
311 306 304 318 349 345 230 198 175 188 189 193 196 202 218 204 219 219 223 240 257 268 285 275 266 250 246 261 248 231 242 225 228 273 228 232 243 262 256 224 202 195 203 204 213 235 242
318 306 300 336 0 345 298 237 167 182 185 196 191 199 212 206 201 215 230 245 267 280 282 277 263 268 243 242 250 226 235 219 238 240 220 228 257 250 259 252 215 208 205 195 218 180 230
325 304 302 322 355 346 274 250 173 179 187 198 184 189 212 217 210 218 239 263 272 277 280 267 251 240 212 254 237 232 238 245 252 231 221 225 233 268 226 191 194 198 200 215 223 249 274
324 304 310 321 351 346 254 195 184 198 200 175 181 190 187 198 217 235 246 261 265 286 292 266 244 251 210 225 250 270 243 266 268 256 280 258 237 242 270 274 198 205 202 207 210 248 116
330 310 296 319 347 338 240 180 197 195 172 181 189 200 195 201 217 244 243 255 263 268 285 262 237 217 201 221 230 238 257 256 248 259 249 259 271 289 291 236 203 205 213 232 216 240 95
332 315 285 315 342 334 286 139 189 199 181 190 196 203 206 218 230 222 233 245 261 273 274 276 250 201 196 211 211 254 242 238 208 227 248 285 293 352 46 155 173 206 226 201 220 205 138
334 322 279 307 331 338 258 161 162 170 179 198 203 205 198 225 230 231 244 277 293 295 300 271 261 217 209 209 211 248 253 231 248 235 259 245 311 356 33 159 176 191 210 223 227 228 196
336 321 291 276 314 322 282 178 180 179 180 199 209 218 210 223 210 218 239 289 283 289 289 295 278 207 191 207 209 235 252 238 228 237 240 233 243 339 349 113 84 103 200 215 226 223 221
335 322 296 300 309 310 265 175 180 180 184 198 202 213 217 233 239 251 256 256 270 288 262 281 242 198 187 191 185 218 198 188 223 246 209 218 245 246 318 287 299 175 201 217 227 237 232
334 325 290 289 321 319 237 181 189 186 190 198 202 214 224 233 247 261 257 256 270 280 305 281 199 201 209 191 207 199 179 172 200 208 230 237 219 219 211 256 187 134 34 213 212 239 234
332 325 303 291 303 321 242 199 193 197 186 193 201 214 222 232 240 252 235 251 276 303 304 286 191 199 210 199 204 194 184 190 183 187 184 193 206 220 231 314 274 239 358 93 169 177 221
329 322 309 289 295 266 242 210 188 184 187 201 205 211 224 232 236 242 252 259 272 304 289 281 194 204 203 210 198 186 194 198 198 187 197 190 188 196 222 223 265 207 224 190 170 141 93
326 320 309 285 287 259 222 197 201 184 185 207 212 214 219 224 241 240 251 257 279 288 287 268 203 208 202 201 200 208 181 195 209 187 194 204 206 198 190 217 201 185 216 230 214 246 304